Погода в Абросово

Россия / Новгородская область     58°43′15″N   35°23′03″E
темп.,
°C
ветер,
м/с
пор.,
м/с
влажн.,
%
обл.,
%
осадки,
мм/ч
давл.,
гПа
погр.,
м
20 апреля, вт
вт2000:00+2в3126613 0.0 1028349
03:000в310774 0.0 1027238
06:00−1в39805 0.0 1027255
09:00+4в485376 0.0 1026601
12:00+8вюв584571 0.0 10241483
15:00+9вюв5748100 0.0 10221627
18:00+6вюв497796 0.1 1022938
21:00+3вюв228392 0.1 102023
21 апреля, ср
ср2100:00+3в267893 0.0 1017198
03:00+3всв51080100 0.0 1015651
06:00+1св31097100 2.2 1011385
09:00+1всв41097100 5.3 1007459
12:00+2всв4896100 1.4 1004613
15:00+2ссв2599100 2.1 1003254
18:00+2зсз2499100 0.9 1002198
21:00+1з4898100 1.2 1003571
22 апреля, чт
чт2200:00+1зюз3798100 0.1 1005643
03:00+1юз3998100 0.4 1007669
06:00+2зюз2997100 0.1 1008547
09:00+4ююз2491100 0.1 1009462
12:00+9ююз357244 0.1 1010999
15:00+11ююз466224 1.1 10101505
18:00+10ю4976100 1.3 1010601
21:00+6ююв3119355 1.4 1011239
23 апреля, пт
пт2300:00+5ююв3119314 0.0 1011266
03:00+4ююв3129443 0.0 1011274
06:00+4юв31097100 0.1 1010280
09:00+7ююв51190100 0.1 1009480
12:00+10ююв51082100 0.1 10091258
15:00+7зюз389399 0.7 1010431
18:00+7з2483100 0.0 1012625
21:00+4зсз3496100 3.1 1012549
24 апреля, сб
сб2400:00+3св2396100 3.1 1011176
03:00+3в1197100 3.7 101195
06:00+3всв1297100 0.0 1010146
09:00+2с1299100 3.1 1009283
12:00+3юз1398100 1.8 1009396
15:00+6юз0283100 1.9 1009570
18:00+6юв2381100 0.6 1009257
21:00+4ююв1189100 1.4 100928